User: anonymous   Login
Location: Newark
(41.5333°N, 14.5500°E)
Time: 06:40:45
(UTC+00:00)
Language:

Hubble Space Telescope - Orbit

View from above orbital plane
View from above orbital plane
View from above satellite
View from above satellite

Ground track
Ground track

The orbit data is extracted from the following two-line orbital elements,

1 20580U 90037B   20049.65804399 +.00000438 +00000-0 +15698-4 0  9991
2 20580 028.4707 031.9753 0002471 238.0271 092.2165 15.09339818437848
Epoch (UTC): 18 February 2020 15:47:35
Eccentricity: 0.0002471
inclination: 28.4707°
perigee height: 536 km
apogee height: 540 km
right ascension of ascending node: 31.9753°
argument of perigee: 238.0271°
revolutions per day: 15.09339818
mean anomaly at epoch: 92.2165°
orbit number at epoch: 43784

The dashed part of the orbit path shows where the satellite is in the earth's shadow,  

DLR